EW3067 Weather Reports


Display with metric or nautical units.
time (UTC)temp
F
wind
direction
speed
MPH
gust
MPH
rain 1hr
in
rain 24hr
in
rain mn
in
humidity
%
barometer
mb
20220119190047 49 327 13.0 23.0 0.00 0.00 0.00 83 1013.5
20220119184608 49 17 14.0 23.0 0.00 0.00 0.00 84 1013.5
20220119183058 49 24 13.0 21.0 0.00 0.00 0.00 85 1013.4
20220119181549 49 5 15.0 20.0 0.00 0.00 0.00 83 1013.4
20220119180053 50 17 10.0 21.0 0.00 0.00 0.00 82 1013.6
20220119174536 51 331 13.0 18.0 0.00 0.00 0.00 78 1013.7
20220119173119 47 331 10.0 15.0 0.00 0.00 0.00 79 1013.8
20220119171623 47 321 11.0 19.0 0.00 0.00 0.00 79 1013.6
20220119170048 48 326 10.0 17.0 0.00 0.00 0.00 77 1013.2
20220119164541 48 318 11.0 15.0 0.00 0.00 0.00 76 1012.9
20220119163022 48 331 8.0 14.0 0.00 0.00 0.00 73 1012.3
20220119161516 49 336 8.0 12.0 0.00 0.00 0.00 71 1012.4
20220119160008 50 262 7.0 11.0 0.00 0.00 0.00 70 1012.0
20220119154520 51 304 6.0 12.0 0.00 0.00 0.00 69 1011.8
20220119151707 53 306 6.0 11.0 0.00 0.00 0.00 71 1010.4
20220119150201 54 274 8.0 15.0 0.00 0.00 0.00 72 1010.2
20220119144629 55 270 8.0 15.0 0.00 0.00 0.00 74 1010.0
20220119143145 53 262 6.0 14.0 0.00 0.00 0.00 84 1009.8
20220119141614 52 260 5.0 10.0 0.00 0.00 0.00 89 1009.7
20220119140118 52 256 6.0 11.0 0.00 0.00 0.00 90 1009.6
20220119134615 52 272 4.0 8.0 0.00 0.00 0.00 89 1009.5
20220119133134 53 241 2.0 7.0 0.00 0.00 0.00 88 1009.4
20220119131647 54 252 3.0 7.0 0.00 0.00 0.00 86 1009.2
20220119130042 55 205 4.0 10.0 0.00 0.00 0.00 86 1009.0
20220119124627 54 209 4.0 8.0 0.00 0.00 0.00 87 1008.6
20220119123137 54 200 4.0 8.0 0.00 0.00 0.00 86 1008.2
20220119121542 54 188 3.0 7.0 0.00 0.00 0.00 87 1008.1
20220119120039 54 175 5.0 9.0 0.00 0.00 0.00 87 1007.9
20220119114533 54 182 4.0 9.0 0.00 0.00 0.00 86 1007.8
20220119113037 54 182 5.0 10.0 0.00 0.00 0.00 86 1007.6
20220119111609 55 180 5.0 12.0 0.00 0.00 0.00 85 1007.6
20220119110023 55 173 4.0 9.0 0.00 0.00 0.00 84 1007.6
20220119104525 56 167 6.0 9.0 0.00 0.00 0.00 83 1007.4
20220119103101 56 190 6.0 9.0 0.00 0.00 0.00 83 1007.2
20220119101536 56 196 6.0 11.0 0.00 0.00 0.00 81 1007.1
20220119100015 57 209 6.0 10.0 0.00 0.00 0.00 81 1007.4
20220119094511 58 210 7.0 13.0 0.00 0.00 0.00 80 1007.2
20220119093042 58 182 7.0 13.0 0.00 0.00 0.00 78 1007.4
20220119091505 59 196 7.0 13.0 0.00 0.00 0.00 77 1007.5
20220119090005 59 200 10.0 16.0 0.00 0.00 0.00 77 1007.5
20220119084500 59 177 8.0 14.0 0.00 0.00 0.00 76 1007.3
20220119083145 60 209 9.0 19.0 0.00 0.00 0.00 75 1007.2
20220119081648 60 195 8.0 19.0 0.00 0.00 0.00 74 1007.3
20220119080139 60 181 10.0 19.0 0.00 0.00 0.00 74 1007.5
20220119074709 60 189 10.0 16.0 0.00 0.00 0.00 73 1007.7
20220119073156 60 194 11.0 18.0 0.00 0.00 0.00 73 1007.9
20220119071554 60 157 12.0 19.0 0.00 0.00 0.00 72 1007.9
20220119070134 60 186 11.0 18.0 0.00 0.00 0.00 71 1007.8
20220119064650 60 157 10.0 17.0 0.00 0.00 0.00 70 1007.8
20220119063059 60 198 9.0 18.0 0.00 0.00 0.00 69 1007.9
20220119061549 60 187 12.0 19.0 0.00 0.00 0.00 69 1007.9
20220119060059 60 180 10.0 16.0 0.00 0.00 0.00 68 1008.0
20220119054539 60 180 10.0 18.0 0.00 0.00 0.00 67 1007.9
20220119053107 60 177 9.0 15.0 0.00 0.00 0.00 66 1007.9
20220119051545 60 184 8.0 13.0 0.00 0.00 0.00 65 1008.0
20220119050130 61 204 8.0 15.0 0.00 0.00 0.00 64 1007.9
20220119044548 61 184 8.0 14.0 0.00 0.00 0.00 63 1008.1
20220119043040 62 205 10.0 17.0 0.00 0.00 0.00 62 1008.0
20220119041544 62 184 9.0 17.0 0.00 0.00 0.00 61 1008.0
20220119040126 62 182 11.0 16.0 0.00 0.00 0.00 61 1008.1
20220119034606 63 184 10.0 18.0 0.00 0.00 0.00 61 1007.9
20220119033133 63 199 8.0 16.0 0.00 0.00 0.00 60 1007.9
20220119031545 63 188 10.0 18.0 0.00 0.00 0.00 60 1007.9
20220119030113 63 207 10.0 18.0 0.00 0.00 0.00 60 1007.7
20220119024555 63 165 10.0 16.0 0.00 0.00 0.00 60 1007.7
20220119023037 63 179 9.0 17.0 0.00 0.00 0.00 60 1007.7
20220119021624 63 191 9.0 15.0 0.00 0.00 0.00 59 1007.7
20220119020029 63 182 9.0 14.0 0.00 0.00 0.00 59 1007.7
20220119014536 64 165 10.0 18.0 0.00 0.00 0.00 58 1007.7
20220119013050 64 178 11.0 18.0 0.00 0.00 0.00 57 1007.5
20220119011606 64 180 10.0 18.0 0.00 0.00 0.00 57 1007.5
20220119010047 65 184 10.0 15.0 0.00 0.00 0.00 57 1007.4
20220119004531 65 175 9.0 15.0 0.00 0.00 0.00 56 1007.2
20220119003037 65 130 8.0 15.0 0.00 0.00 0.00 56 1007.1
20220119001555 65 186 11.0 16.0 0.00 0.00 0.00 56 1007.0
20220119000036 66 155 8.0 17.0 0.00 0.00 0.00 55 1007.1
20220118234535 66 182 9.0 16.0 0.00 0.00 0.00 54 1007.0
20220118233020 67 169 12.0 21.0 0.00 0.00 0.00 52 1007.0
20220118231540 68 167 11.0 18.0 0.00 0.00 0.00 52 1007.0
20220118230051 68 166 13.0 20.0 0.00 0.00 0.00 51 1007.0
20220118224532 69 163 14.0 19.0 0.00 0.00 0.00 50 1007.1
20220118223047 70 153 12.0 18.0 0.00 0.00 0.00 48 1007.1
20220118221533 70 154 11.0 21.0 0.00 0.00 0.00 46 1006.9
20220118220018 70 202 12.0 19.0 0.00 0.00 0.00 46 1007.0
20220118214546 70 192 14.0 23.0 0.00 0.00 0.00 45 1007.1
20220118213015 70 200 13.0 19.0 0.00 0.00 0.00 45 1007.2
20220118211542 69 194 12.0 21.0 0.00 0.00 0.00 48 1007.5
20220118210004 69 182 12.0 22.0 0.00 0.00 0.00 48 1007.6
20220118204502 68 198 10.0 19.0 0.00 0.00 0.00 48 1007.7
20220118203211 69 172 11.0 19.0 0.00 0.00 0.00 49 1007.8
20220118201733 68 225 16.0 25.0 0.00 0.00 0.00 47 1007.8
20220118200155 68 195 14.0 22.0 0.00 0.00 0.00 47 1007.9
20220118194706 67 200 15.0 26.0 0.00 0.00 0.00 47 1008.1
20220118193128 67 206 12.0 23.0 0.00 0.00 0.00 48 1008.4
20220118191711 67 187 11.0 20.0 0.00 0.00 0.00 48 1008.6